EW9965 Weather Reports


time (UTC)temp
C
wind
direction
speed
KPH
gust
KPH
rain 1hr
cm
rain 24hr
cm
rain mn
cm
humidity
%
barometer
mb
20260903164510 23 157 0.0 8.0 0.00 0.00 0.00 50 1014.6
20260903163013 22 290 3.2 8.0 0.00 0.00 0.00 52 1014.7
20260903161507 21 216 1.6 8.0 0.00 0.00 0.00 52 1014.8
20260903160058 20 153 0.0 3.2 0.00 0.00 0.00 57 1014.8
20260903154558 19 233 0.0 3.2 0.00 0.00 0.00 60 1014.9
20260903153050 18 109 0.0 0.0 0.00 0.00 0.00 61 1014.8
20260903151547 17 109 0.0 0.0 0.00 0.00 0.00 75 1014.9
20260903150054 16 109 0.0 0.0 0.00 0.00 0.00 81 1015.0
20260903144540 15 72 0.0 0.0 0.00 0.00 0.00 84 1014.9
20260903143033 15 72 0.0 0.0 0.00 0.00 0.00 85 1014.9
20260903141528 13 28 0.0 0.0 0.00 0.00 0.00 84 1014.7
20260903140024 13 14 0.0 0.0 0.00 0.00 0.00 84 1014.4
20260903134521 13 11 0.0 0.0 0.00 0.00 0.00 84 1014.4
20260903133019 13 10 0.0 0.0 0.00 0.00 0.00 84 1014.3
20260903131518 13 10 0.0 0.0 0.00 0.00 0.00 84 1014.3
20260903130017 13 10 0.0 0.0 0.00 0.00 0.00 84 1014.2
20260903124516 13 351 0.0 0.0 0.00 0.00 0.00 84 1014.2
20260903123016 13 34 0.0 0.0 0.00 0.00 0.00 84 1014.2
20260903121531 13 25 0.0 0.0 0.00 0.00 0.00 85 1014.0
20260903120013 13 42 0.0 0.0 0.00 0.00 0.00 85 1014.1
20260903114511 14 41 0.0 0.0 0.00 0.00 0.00 85 1014.1
20260903113012 14 15 0.0 0.0 0.00 0.00 0.00 85 1014.1
20260903111509 14 4 0.0 1.6 0.00 0.00 0.00 85 1014.3
20260903110007 14 5 0.0 0.0 0.00 0.00 0.00 85 1014.3
20260903104506 14 37 0.0 1.6 0.00 0.00 0.00 85 1014.3
20260903103004 15 14 0.0 3.2 0.00 0.00 0.00 85 1014.3
20260903101503 15 14 1.6 3.2 0.00 0.00 0.00 85 1014.4
20260903100001 15 25 0.0 3.2 0.00 0.00 0.00 84 1014.4
20260903094610 15 45 0.0 3.2 0.00 0.00 0.00 84 1014.5
20260903091559 15 23 0.0 0.0 0.00 0.00 0.00 84 1014.7
20260903090053 15 23 0.0 0.0 0.00 0.00 0.00 84 1014.7
20260903084549 16 23 0.0 0.0 0.00 0.00 0.00 84 1014.9
20260903083051 16 19 0.0 0.0 0.00 0.00 0.00 83 1015.1
20260903081547 16 18 0.0 1.6 0.00 0.00 0.00 83 1015.2
20260903080045 16 8 0.0 3.2 0.00 0.00 0.00 83 1015.2
20260903074543 16 353 0.0 0.0 0.00 0.00 0.00 82 1015.2
20260903073041 16 5 0.0 0.0 0.00 0.00 0.00 81 1015.2
20260903071542 17 354 0.0 0.0 0.00 0.00 0.00 81 1015.2
20260903070038 17 8 0.0 0.0 0.00 0.00 0.00 80 1015.1
20260903064538 17 149 0.0 0.0 0.00 0.00 0.00 79 1015.2
20260903063037 17 149 0.0 0.0 0.00 0.00 0.00 77 1015.2
20260903061537 17 149 0.0 0.0 0.00 0.00 0.00 76 1015.2
20260903060042 18 149 0.0 0.0 0.00 0.00 0.00 74 1015.2
20260903054535 18 149 0.0 0.0 0.00 0.00 0.00 73 1015.1
20260903053038 18 149 0.0 0.0 0.00 0.00 0.00 72 1015.2
20260903051534 18 149 0.0 0.0 0.00 0.00 0.00 71 1015.3
20260903050037 19 149 0.0 0.0 0.00 0.00 0.00 70 1015.4
20260903044533 19 149 0.0 0.0 0.00 0.00 0.00 70 1015.3
20260903043032 20 149 0.0 0.0 0.00 0.00 0.00 69 1015.3
20260903041535 20 149 0.0 6.4 0.00 0.00 0.00 69 1015.2
20260903040031 20 166 0.0 6.4 0.00 0.00 0.00 69 1015.1
20260903034531 21 180 0.0 6.4 0.00 0.00 0.00 68 1014.9
20260903033031 21 185 0.0 1.6 0.00 0.00 0.00 66 1014.7
20260903031539 21 171 0.0 8.0 0.00 0.00 0.00 64 1014.6
20260903030030 21 180 1.6 8.0 0.00 0.00 0.00 61 1014.4
20260903024528 22 236 1.6 8.0 0.00 0.00 0.00 58 1014.4
20260903023031 22 214 1.6 8.0 0.00 0.00 0.00 57 1014.2
20260903021539 23 170 0.0 8.0 0.00 0.00 0.00 55 1014.1
20260903020033 24 207 0.0 14.5 0.00 0.00 0.00 54 1014.1
20260903014526 25 263 4.8 16.1 0.00 0.00 0.00 52 1014.0
20260903013025 25 227 4.8 12.9 0.00 0.00 0.00 50 1013.9
20260903011527 26 162 3.2 11.3 0.00 0.00 0.00 48 1013.8
20260903010028 27 207 1.6 11.3 0.00 0.00 0.00 46 1013.7
20260903004529 27 170 6.4 14.5 0.00 0.00 0.00 42 1013.6
20260903003021 28 217 3.2 20.9 0.00 0.00 0.00 42 1013.6
20260903001522 28 182 3.2 14.5 0.00 0.00 0.00 41 1013.6
20260903000035 28 117 6.4 14.5 0.00 0.00 0.00 42 1013.6
20260902234517 29 162 3.2 14.5 0.00 0.00 0.00 43 1013.6
20260902233016 29 155 4.8 14.5 0.00 0.00 0.00 41 1013.7
20260902231518 29 228 4.8 14.5 0.00 0.00 0.00 43 1013.9
20260902230011 30 190 4.8 14.5 0.00 0.00 0.00 40 1014.0
20260902224510 30 245 4.8 16.1 0.00 0.00 0.00 41 1014.1
20260902223019 30 125 9.7 19.3 0.00 0.00 0.00 41 1014.2
20260902221507 30 163 9.7 19.3 0.00 0.00 0.00 41 1014.3
20260902220013 30 243 3.2 17.7 0.00 0.00 0.00 40 1014.4
20260902214519 30 255 4.8 19.3 0.00 0.00 0.00 40 1014.3
20260902213004 31 211 8.0 19.3 0.00 0.00 0.00 38 1014.3
20260902211505 31 183 4.8 17.7 0.00 0.00 0.00 36 1014.2
20260902210010 32 186 6.4 16.1 0.00 0.00 0.00 35 1014.1
20260902204503 31 144 8.0 14.5 0.00 0.00 0.00 34 1014.2
20260902203059 32 210 6.4 14.5 0.00 0.00 0.00 32 1014.2
20260902201556 31 139 4.8 16.1 0.00 0.00 0.00 31 1014.4
20260902200053 31 169 6.4 22.5 0.00 0.00 0.00 35 1014.5
20260902194551 31 188 6.4 16.1 0.00 0.00 0.00 33 1014.9
20260902193051 31 165 4.8 12.9 0.00 0.00 0.00 34 1015.0
20260902191549 30 195 4.8 14.5 0.00 0.00 0.00 34 1015.3
20260902190043 29 144 6.4 14.5 0.00 0.00 0.00 35 1015.4
20260902184544 29 205 4.8 14.5 0.00 0.00 0.00 37 1015.6
20260902183043 28 235 4.8 11.3 0.00 0.00 0.00 45 1015.8
20260902181534 27 219 3.2 12.9 0.00 0.00 0.00 46 1015.8
20260902180035 27 159 3.2 11.3 0.00 0.00 0.00 49 1015.9
20260902174534 26 204 3.2 11.3 0.00 0.00 0.00 52 1015.8
20260902173034 25 221 4.8 14.5 0.00 0.00 0.00 57 1015.8
20260902171519 23 156 0.0 8.0 0.00 0.00 0.00 62 1015.8
20260902170012 23 249 1.6 6.4 0.00 0.00 0.00 65 1015.8